CW5102 Weather Reports


time (UTC)temp
C
wind
direction
speed
KPH
gust
KPH
rain 1hr
cm
rain 24hr
cm
rain mn
cm
humidity
%
barometer
mb
20260906173703 23 232 0.0 0.0 0.00 0.00 0.00 100 1017.9
20260906173203 23 236 0.0 0.0 0.00 0.00 0.00 100 1017.9
20260906172703 23 220 0.0 0.0 0.00 0.00 0.00 100 1017.8
20260906172204 23 249 0.0 0.0 0.00 0.00 0.00 100 1017.8
20260906171703 23 199 0.0 0.0 0.00 0.00 0.00 100 1017.9
20260906171203 23 227 0.0 0.0 0.00 0.00 0.00 100 1018.0
20260906170703 23 212 0.0 0.0 0.00 0.00 0.00 100 1018.1
20260906170203 23 214 0.0 0.0 0.00 0.00 0.00 100 1018.1
20260906165703 23 184 0.0 0.0 0.00 0.00 0.00 100 1018.1
20260906165203 23 222 0.0 0.0 0.00 0.00 0.00 100 1018.1
20260906164704 23 109 0.0 0.0 0.00 0.00 0.00 100 1018.2
20260906164203 23 243 0.0 0.0 0.00 0.00 0.00 100 1018.2
20260906163703 23 243 0.0 0.0 0.00 0.00 0.00 100 1018.1
20260906163203 23 243 0.0 0.0 0.00 0.00 0.00 100 1018.2
20260906162203 22 178 0.0 0.0 0.00 0.00 0.00 100 1018.3
20260906161703 22 249 0.0 0.0 0.00 0.00 0.00 100 1018.3
20260906161203 22 237 0.0 0.0 0.00 0.00 0.00 100 1018.4
20260906160703 22 184 0.0 0.0 0.00 0.00 0.00 100 1018.4
20260906160203 22 213 0.0 0.0 0.00 0.00 0.00 100 1018.5
20260906155703 22 235 0.0 0.0 0.00 0.00 0.00 100 1018.4
20260906155203 22 256 0.0 0.0 0.00 0.00 0.00 100 1018.4
20260906154703 22 143 0.0 0.0 0.00 0.00 0.00 100 1018.3
20260906153703 22 277 0.0 0.0 0.00 0.00 0.00 100 1018.4
20260906153203 22 120 0.0 0.0 0.00 0.00 0.00 100 1018.3
20260906152703 22 261 0.0 0.0 0.00 0.00 0.00 100 1018.4
20260906151703 22 142 0.0 0.0 0.00 0.00 0.00 100 1018.5
20260906151203 22 270 0.0 0.0 0.00 0.00 0.00 100 1018.4
20260906150703 22 192 0.0 0.0 0.00 0.00 0.00 100 1018.5
20260906150203 22 156 0.0 0.0 0.00 0.00 0.00 100 1018.4
20260906145703 22 276 0.0 0.0 0.00 0.00 0.00 100 1018.4
20260906145203 22 232 0.0 0.0 0.00 0.00 0.00 100 1018.3
20260906144703 22 237 0.0 0.0 0.00 0.00 0.00 100 1018.2
20260906144203 22 177 0.0 0.0 0.00 0.00 0.00 100 1018.2
20260906143703 22 224 0.0 0.0 0.00 0.00 0.00 100 1018.2
20260906143203 22 244 0.0 0.0 0.00 0.00 0.00 100 1018.2
20260906142703 22 218 0.0 0.0 0.00 0.00 0.00 100 1018.1
20260906142203 22 357 0.0 0.0 0.00 0.00 0.00 100 1018.0
20260906141703 21 357 0.0 0.0 0.00 0.00 0.00 100 1018.1
20260906141204 21 226 0.0 0.0 0.00 0.00 0.00 100 1018.1
20260906140703 21 215 0.0 0.0 0.00 0.00 0.00 100 1018.2
20260906140203 21 202 0.0 0.0 0.00 0.00 0.00 100 1018.3
20260906135703 21 155 0.0 0.0 0.00 0.00 0.00 100 1018.3
20260906135203 21 237 0.0 0.0 0.00 0.00 0.00 100 1018.2
20260906134203 21 223 0.0 0.0 0.00 0.00 0.00 100 1018.0
20260906133704 21 181 0.0 0.0 0.00 0.00 0.00 100 1018.0
20260906133203 21 238 0.0 0.0 0.00 0.00 0.00 100 1017.9
20260906132703 20 152 0.0 0.0 0.00 0.00 0.00 100 1017.9
20260906132203 20 116 0.0 0.0 0.00 0.00 0.00 100 1017.8
20260906131704 20 116 0.0 0.0 0.00 0.00 0.00 100 1017.8
20260906131203 20 260 0.0 0.0 0.00 0.00 0.00 100 1017.9
20260906130703 20 235 0.0 0.0 0.00 0.00 0.00 100 1017.8
20260906130203 20 236 0.0 0.0 0.00 0.00 0.00 100 1017.7
20260906125703 20 236 0.0 0.0 0.00 0.00 0.00 100 1017.7
20260906125203 20 119 0.0 0.0 0.00 0.00 0.00 100 1017.7
20260906124703 20 119 0.0 0.0 0.00 0.00 0.00 100 1017.7
20260906124204 20 119 0.0 0.0 0.00 0.00 0.00 100 1017.6
20260906123703 20 119 0.0 0.0 0.00 0.00 0.00 100 1017.7
20260906123203 20 119 0.0 0.0 0.00 0.00 0.00 100 1017.5
20260906122704 20 108 0.0 0.0 0.00 0.00 0.00 100 1017.5
20260906122204 20 108 0.0 0.0 0.00 0.00 0.00 100 1017.6
20260906121703 20 108 0.0 0.0 0.00 0.00 0.00 100 1017.6
20260906121204 20 108 0.0 0.0 0.00 0.00 0.00 100 1017.6
20260906120703 20 108 0.0 0.0 0.00 0.00 0.00 100 1017.5
20260906120203 20 108 0.0 0.0 0.00 0.00 0.00 100 1017.6
20260906115703 20 108 0.0 0.0 0.00 0.00 0.00 100 1017.5
20260906115203 20 108 0.0 0.0 0.00 0.00 0.00 100 1017.5
20260906114703 20 108 0.0 0.0 0.00 0.00 0.00 100 1017.4
20260906114203 20 108 0.0 0.0 0.00 0.00 0.00 100 1017.3
20260906113703 20 108 0.0 0.0 0.00 0.00 0.00 100 1017.4
20260906113203 20 108 0.0 0.0 0.00 0.00 0.00 100 1017.3
20260906112703 20 108 0.0 0.0 0.00 0.00 0.00 100 1017.3
20260906112203 20 108 0.0 0.0 0.00 0.00 0.00 100 1017.2
20260906111704 20 108 0.0 0.0 0.00 0.00 0.00 100 1017.1
20260906111203 20 108 0.0 0.0 0.00 0.00 0.00 100 1017.1
20260906110703 20 108 0.0 0.0 0.00 0.00 0.00 100 1017.1
20260906110203 20 108 0.0 0.0 0.00 0.00 0.00 100 1017.1
20260906105703 20 108 0.0 0.0 0.00 0.00 0.00 100 1017.0
20260906105203 20 108 0.0 0.0 0.00 0.00 0.00 100 1017.0
20260906104703 20 108 0.0 0.0 0.00 0.00 0.00 100 1017.0
20260906104203 20 108 0.0 0.0 0.00 0.00 0.00 100 1017.1
20260906103703 20 108 0.0 0.0 0.00 0.00 0.00 100 1017.2
20260906102703 20 108 0.0 0.0 0.00 0.00 0.00 100 1017.0
20260906102203 20 108 0.0 0.0 0.00 0.00 0.00 100 1016.9
20260906101703 20 108 0.0 0.0 0.00 0.00 0.00 100 1016.9
20260906100704 20 108 0.0 0.0 0.00 0.00 0.00 100 1017.0
20260906100203 20 108 0.0 0.0 0.00 0.00 0.00 100 1016.9
20260906095704 20 108 0.0 0.0 0.00 0.00 0.00 100 1016.8
20260906095204 20 108 0.0 0.0 0.00 0.00 0.00 100 1016.9
20260906094703 20 108 0.0 0.0 0.00 0.00 0.00 100 1016.8
20260906094203 20 108 0.0 0.0 0.00 0.00 0.00 100 1016.6
20260906093704 20 108 0.0 0.0 0.00 0.00 0.00 100 1016.5
20260906093203 20 108 0.0 0.0 0.00 0.00 0.00 100 1016.4
20260906092704 21 108 0.0 0.0 0.00 0.00 0.00 100 1016.4
20260906092204 21 108 0.0 0.0 0.00 0.00 0.00 100 1016.4
20260906091204 21 109 0.0 0.0 0.00 0.00 0.00 100 1016.2
20260906090204 21 109 0.0 0.0 0.00 0.00 0.00 100 1016.2
20260906085704 21 109 0.0 1.6 0.00 0.00 0.00 100 1016.3
20260906085204 21 109 0.0 1.6 0.00 0.00 0.00 100 1016.4
20260906084703 21 114 0.0 1.6 0.00 0.00 0.00 100 1016.4
20260906084203 21 117 0.0 11.3 0.00 0.00 0.00 100 1016.4
20260906083204 21 86 0.0 11.3 0.00 0.00 0.00 100 1016.3
20260906082202 21 124 0.0 4.8 0.00 0.00 0.00 100 1016.1
20260906081702 21 124 0.0 4.8 0.00 0.00 0.00 100 1016.1
20260906081202 21 124 0.0 0.0 0.00 0.00 0.00 100 1016.0
20260906080702 21 210 0.0 0.0 0.00 0.00 0.00 100 1016.1
20260906080202 21 211 0.0 0.0 0.00 0.00 0.00 100 1016.2
20260906075702 21 167 0.0 0.0 0.00 0.00 0.00 100 1016.0
20260906075202 21 174 0.0 0.0 0.00 0.00 0.00 100 1015.9
20260906074203 21 155 0.0 0.0 0.00 0.00 0.00 100 1016.1
20260906072702 21 96 0.0 0.0 0.00 0.00 0.00 100 1016.2
20260906072202 21 96 0.0 0.0 0.00 0.00 0.00 100 1016.4
20260906071702 21 96 0.0 0.0 0.00 0.00 0.00 100 1016.4
20260906071202 21 96 0.0 0.0 0.00 0.00 0.00 100 1016.5
20260906070702 21 190 0.0 0.0 0.00 0.00 0.00 100 1016.5
20260906070202 22 193 0.0 0.0 0.00 0.00 0.00 100 1016.6
20260906065202 22 193 0.0 0.0 0.00 0.00 0.00 100 1016.7
20260906064702 22 193 0.0 0.0 0.00 0.00 0.00 100 1016.7
20260906064202 22 193 0.0 0.0 0.00 0.00 0.00 100 1016.7
20260906063702 22 193 0.0 0.0 0.00 0.00 0.00 100 1016.8
20260906063202 22 193 0.0 0.0 0.00 0.00 0.00 100 1016.8
20260906062702 22 200 0.0 0.0 0.00 0.00 0.00 100 1016.7
20260906062202 22 205 0.0 0.0 0.00 0.00 0.00 100 1016.7
20260906061703 22 231 0.0 0.0 0.00 0.00 0.00 100 1016.6
20260906060702 22 231 0.0 0.0 0.00 0.00 0.00 100 1016.6
20260906060202 22 231 0.0 0.0 0.00 0.00 0.00 100 1016.7
20260906055702 22 232 0.0 0.0 0.00 0.00 0.00 100 1016.7
20260906055202 22 232 0.0 0.0 0.00 0.00 0.00 100 1016.6
20260906054202 22 233 0.0 0.0 0.00 0.00 0.00 100 1016.6
20260906053702 22 233 0.0 0.0 0.00 0.00 0.00 100 1016.7
20260906053202 22 233 0.0 0.0 0.00 0.00 0.00 100 1016.6
20260906052702 22 233 0.0 0.0 0.00 0.00 0.00 100 1016.6
20260906052202 22 233 0.0 0.0 0.00 0.00 0.00 100 1016.7
20260906051703 22 233 0.0 0.0 0.00 0.00 0.00 100 1016.6
20260906051203 22 233 0.0 0.0 0.00 0.00 0.00 100 1016.7
20260906050702 22 233 0.0 0.0 0.00 0.00 0.00 100 1016.7
20260906050203 22 233 0.0 0.0 0.00 0.00 0.00 100 1016.7
20260906045702 22 233 0.0 0.0 0.00 0.00 0.00 100 1016.8
20260906045202 22 233 0.0 0.0 0.00 0.00 0.00 100 1016.8
20260906044702 22 233 0.0 0.0 0.00 0.00 0.00 100 1016.9
20260906044202 22 233 0.0 0.0 0.00 0.00 0.00 99 1016.9
20260906043703 22 233 0.0 0.0 0.00 0.00 0.00 99 1016.9
20260906043202 22 233 0.0 0.0 0.00 0.00 0.00 99 1016.9
20260906042202 22 233 0.0 0.0 0.00 0.00 0.00 99 1017.0
20260906040702 22 233 0.0 0.0 0.00 0.00 0.00 97 1017.0
20260906035702 22 234 0.0 0.0 0.00 0.00 0.00 96 1017.1
20260906035202 22 234 0.0 0.0 0.00 0.00 0.00 96 1017.1
20260906034703 22 234 0.0 0.0 0.00 0.00 0.00 95 1017.2
20260906034202 22 234 0.0 0.0 0.00 0.00 0.00 94 1017.2
20260906033702 22 234 0.0 0.0 0.00 0.00 0.00 94 1017.1
20260906033202 22 234 0.0 0.0 0.00 0.00 0.00 94 1017.0
20260906032703 22 234 0.0 0.0 0.00 0.00 0.00 93 1017.0
20260906032202 22 234 0.0 0.0 0.00 0.00 0.00 92 1017.1
20260906031702 23 234 0.0 0.0 0.00 0.00 0.00 92 1017.0
20260906031202 23 234 0.0 0.0 0.00 0.00 0.00 91 1017.0
20260906030703 23 234 0.0 0.0 0.00 0.00 0.00 91 1017.0
20260906030202 23 234 0.0 0.0 0.00 0.00 0.00 91 1017.0
20260906025703 23 234 0.0 0.0 0.00 0.00 0.00 91 1016.9
20260906025203 23 234 0.0 0.0 0.00 0.00 0.00 90 1017.0
20260906024202 23 234 0.0 0.0 0.00 0.00 0.00 89 1017.3
20260906023702 23 234 0.0 0.0 0.00 0.00 0.00 89 1017.3
20260906023202 23 234 0.0 0.0 0.00 0.00 0.00 89 1017.2
20260906022703 23 234 0.0 0.0 0.00 0.00 0.00 88 1017.0
20260906022203 23 234 0.0 0.0 0.00 0.00 0.00 88 1017.0
20260906021702 23 234 0.0 0.0 0.00 0.00 0.00 88 1016.9
20260906021202 23 234 0.0 0.0 0.00 0.00 0.00 87 1016.8
20260906020203 23 234 0.0 0.0 0.00 0.00 0.00 86 1016.4
20260906015703 23 234 0.0 0.0 0.00 0.00 0.00 86 1016.2
20260906015203 24 234 0.0 0.0 0.00 0.00 0.00 85 1016.1
20260906014702 24 233 0.0 0.0 0.00 0.00 0.00 85 1016.0
20260906014203 24 234 0.0 0.0 0.00 0.00 0.00 84 1015.8
20260906013703 24 211 0.0 0.0 0.00 0.00 0.00 83 1015.7
20260906013203 24 212 0.0 0.0 0.00 0.00 0.00 83 1015.4
20260906012702 24 212 0.0 0.0 0.00 0.00 0.00 82 1015.3
20260906012202 25 212 0.0 0.0 0.00 0.00 0.00 81 1015.2
20260906011703 25 249 0.0 0.0 0.00 0.00 0.00 80 1015.2
20260906011203 25 246 0.0 0.0 0.00 0.00 0.00 80 1015.1
20260906010203 25 222 0.0 0.0 0.00 0.00 0.00 79 1014.9
20260906005703 25 235 0.0 0.0 0.00 0.00 0.00 78 1014.8
20260906005203 25 228 0.0 0.0 0.00 0.00 0.00 77 1014.7
20260906004702 25 228 0.0 0.0 0.00 0.00 0.00 76 1014.7
20260906004203 25 228 0.0 0.0 0.00 0.00 0.00 76 1014.8
20260906003702 25 244 0.0 0.0 0.00 0.00 0.00 75 1014.8
20260906003203 25 235 0.0 0.0 0.00 0.00 0.00 73 1014.6
20260906002703 25 235 0.0 0.0 0.00 0.00 0.00 73 1014.5
20260906002203 26 237 0.0 1.6 0.00 0.00 0.00 71 1014.4
20260906001702 26 233 0.0 1.6 0.00 0.00 0.00 71 1014.2
20260906001202 26 185 0.0 0.0 0.00 0.00 0.00 70 1014.2
20260906000204 26 159 0.0 1.6 0.00 0.00 0.00 70 1014.4
20260905235702 26 161 0.0 1.6 0.00 0.00 0.00 70 1014.5
20260905235203 26 153 0.0 1.6 0.00 0.00 0.00 70 1014.4
20260905234703 26 145 0.0 3.2 0.00 0.00 0.00 70 1014.5
20260905234202 26 146 0.0 3.2 0.00 0.00 0.00 70 1014.4
20260905233703 26 93 0.0 0.0 0.00 0.00 0.00 70 1014.4
20260905232703 27 127 0.0 0.0 0.00 0.00 0.00 69 1014.3
20260905232202 27 183 0.0 0.0 0.00 0.00 0.00 69 1014.3
20260905231202 27 157 0.0 0.0 0.00 0.00 0.00 68 1014.1
20260905230703 27 158 0.0 0.0 0.00 0.00 0.00 68 1014.0
20260905230203 27 91 0.0 0.0 0.00 0.00 0.00 68 1014.0
20260905225203 27 185 0.0 0.0 0.00 0.00 0.00 68 1013.9
20260905224703 27 167 0.0 0.0 0.00 0.00 0.00 67 1013.8
20260905224202 27 129 0.0 0.0 0.00 0.00 0.00 68 1013.7
20260905223202 27 169 0.0 0.0 0.00 0.00 0.00 70 1013.7
20260905222703 27 161 0.0 0.0 0.00 0.00 0.00 69 1013.8
20260905222203 27 141 0.0 0.0 0.00 0.00 0.00 71 1013.8
20260905221202 27 149 0.0 0.0 0.00 0.00 0.00 71 1013.9
20260905220703 27 116 0.0 0.0 0.00 0.00 0.00 71 1013.9
20260905215703 27 94 0.0 0.0 0.00 0.00 0.00 72 1014.1
20260905215203 27 111 0.0 0.0 0.00 0.00 0.00 73 1014.0
20260905214702 27 127 0.0 0.0 0.00 0.00 0.00 73 1014.1
20260905214203 28 119 0.0 0.0 0.00 0.00 0.00 75 1014.3
20260905213702 28 157 0.0 0.0 0.00 0.00 0.00 75 1014.3
20260905213203 28 108 0.0 0.0 0.00 0.00 0.00 77 1014.2
20260905212702 28 171 0.0 0.0 0.00 0.00 0.00 78 1014.3
20260905212203 28 131 0.0 0.0 0.00 0.00 0.00 79 1014.4
20260905211703 28 115 0.0 0.0 0.00 0.00 0.00 80 1014.4
20260905211203 28 195 0.0 0.0 0.00 0.00 0.00 82 1014.3
20260905210703 28 126 0.0 0.0 0.00 0.00 0.00 84 1014.3
20260905210203 28 108 0.0 0.0 0.00 0.00 0.00 86 1014.3
20260905205702 27 166 0.0 1.6 0.00 0.00 0.00 89 1014.3
20260905205202 27 92 0.0 1.6 0.00 0.00 0.00 90 1014.2
20260905204702 27 21 0.0 1.6 0.00 0.00 0.00 92 1014.3
20260905204203 27 100 0.0 0.0 0.00 0.00 0.00 95 1014.5
20260905203702 27 92 0.0 0.0 0.00 0.00 0.00 99 1014.7
20260905203203 27 134 0.0 0.0 0.00 0.00 0.00 100 1015.0
20260905202704 27 131 0.0 0.0 0.00 0.00 0.00 100 1015.2
20260905202203 26 172 0.0 0.0 0.00 0.00 0.00 100 1015.2
20260905201703 26 142 0.0 0.0 0.00 0.00 0.00 100 1015.2
20260905201203 26 172 0.0 0.0 0.00 0.00 0.00 100 1015.3
20260905200703 26 139 0.0 0.0 0.00 0.00 0.00 100 1015.5
20260905200203 26 101 0.0 0.0 0.00 0.00 0.00 100 1015.6
20260905195703 26 86 0.0 0.0 0.00 0.00 0.00 100 1015.8
20260905195203 26 55 0.0 0.0 0.00 0.00 0.00 100 1015.8
20260905194703 26 191 0.0 0.0 0.00 0.00 0.00 100 1016.0
20260905194202 26 130 0.0 0.0 0.00 0.00 0.00 100 1016.0
20260905193703 26 107 0.0 0.0 0.00 0.00 0.00 100 1016.2
20260905193203 26 107 0.0 0.0 0.00 0.00 0.00 100 1016.1
20260905192703 26 107 0.0 0.0 0.00 0.00 0.00 100 1016.1
20260905192203 26 134 0.0 0.0 0.00 0.00 0.00 100 1016.1
20260905191703 25 134 0.0 0.0 0.00 0.00 0.00 100 1016.3
20260905190702 25 134 0.0 0.0 0.00 0.00 0.00 100 1016.3
20260905190203 25 134 0.0 0.0 0.00 0.00 0.00 100 1016.3
20260905185203 25 134 0.0 0.0 0.00 0.00 0.00 100 1016.3
20260905184703 25 134 0.0 0.0 0.00 0.00 0.00 100 1016.3
20260905184203 25 134 0.0 0.0 0.00 0.00 0.00 100 1016.4
20260905183702 25 134 0.0 0.0 0.00 0.00 0.00 100 1016.3
20260905183203 25 134 0.0 0.0 0.00 0.00 0.00 100 1016.3
20260905182703 24 134 0.0 0.0 0.00 0.00 0.00 100 1016.5
20260905182203 24 134 0.0 0.0 0.00 0.00 0.00 100 1016.6
20260905181703 24 157 0.0 0.0 0.00 0.00 0.00 100 1016.6
20260905181203 24 184 0.0 0.0 0.00 0.00 0.00 100 1016.6
20260905180703 24 167 0.0 0.0 0.00 0.00 0.00 100 1016.7
20260905180203 24 213 0.0 0.0 0.00 0.00 0.00 100 1016.6
20260905175704 24 161 0.0 0.0 0.00 0.00 0.00 100 1016.6
20260905175203 23 161 0.0 0.0 0.00 0.00 0.00 100 1016.8
20260905174702 23 130 0.0 0.0 0.00 0.00 0.00 100 1016.8
20260905174203 23 153 0.0 0.0 0.00 0.00 0.00 100 1016.9